| time (UTC) | temp F | wind direction | speed knots | gust knots | rain 1hr in | rain 24hr in | rain mn in | humidity % | barometer mb |
| 20260507091835 | 59 | 230 | 6.1 | 0.0 | 0.00 | 0.00 | 0.00 | 62 | |
| 20260507081835 | 57 | 260 | 6.1 | 0.0 | 0.00 | 0.00 | 0.00 | 67 | |
| 20260507071836 | 59 | 230 | 7.8 | 0.0 | 0.00 | 0.00 | 0.00 | 72 | |
| 20260507061835 | 55 | 240 | 6.1 | 0.0 | 0.00 | 0.00 | 0.00 | 82 | |
| 20260507051834 | 54 | 220 | 4.3 | 0.0 | 0.00 | 0.00 | 0.00 | 87 | |
| 20260507042040 | 50 | 200 | 1.7 | 0.0 | 0.00 | 0.00 | 0.00 | 93 | |
| 20260507031836 | 50 | 190 | 1.7 | 0.0 | 0.00 | 0.00 | 0.00 | 93 | |
| 20260507021833 | 52 | 250 | 4.3 | 0.0 | 0.00 | 0.00 | 0.00 | 93 | |
| 20260507011935 | 54 | 230 | 4.3 | 0.0 | 0.00 | 0.00 | 0.00 | 93 | |
| 20260507001835 | 54 | 230 | 4.3 | 0.0 | 0.00 | 0.00 | 0.00 | 93 | |
| 20260506231837 | 55 | 220 | 1.7 | 0.0 | 0.00 | 0.00 | 0.00 | 93 | |
| 20260506222037 | 57 | 110 | 4.3 | 0.0 | 0.00 | 0.00 | 0.00 | 87 | |
| 20260506211835 | 55 | 120 | 4.3 | 0.0 | 0.00 | 0.00 | 0.00 | 93 | |
| 20260506201852 | 59 | 60 | 6.1 | 0.0 | 0.00 | 0.00 | 0.00 | 82 | |
| 20260506191956 | 59 | 310 | 1.7 | 0.0 | 0.00 | 0.00 | 0.00 | 82 | |
| 20260506181924 | 61 | 80 | 4.3 | 0.0 | 0.00 | 0.00 | 0.00 | 77 | |
| 20260506171835 | 61 | 80 | 6.1 | 0.0 | 0.00 | 0.00 | 0.00 | 67 | |
| 20260506162038 | 61 | 0 | 4.3 | 0.0 | 0.00 | 0.00 | 0.00 | 77 | |
| 20260506151851 | 64 | 310 | 7.8 | 0.0 | 0.00 | 0.00 | 0.00 | 59 | |
| 20260506141851 | 70 | 340 | 1.7 | 0.0 | 0.00 | 0.00 | 0.00 | 43 | |
| 20260506131851 | 68 | 320 | 4.3 | 0.0 | 0.00 | 0.00 | 0.00 | 49 | |
| 20260506121851 | 70 | 170 | 4.3 | 0.0 | 0.00 | 0.00 | 0.00 | 52 | |
| 20260506111837 | 68 | 0 | 4.3 | 0.0 | 0.00 | 0.00 | 0.00 | 52 | |
| 20260506102038 | 66 | 260 | 4.3 | 0.0 | 0.00 | 0.00 | 0.00 | 55 |